Location: Unspecified
(0.0000°N, 0.0000°E)
Time: 02:46:26
(UTC+00:00)

Vanguard 1 Rocket - Pass Details

Date: 17 December 2017
Orbit: 656 x 4222 km, 34.3° (Epoch: 20 January)

Event Time Altitude Azimuth Distance (km) Brightness Sun altitude
Rises 00:09:05 0° 306° (NW) 7,704 - -66.4°
Reaches altitude 10° 00:13:51 10° 306° (NW) 6,964 - -66.2°
Maximum altitude 00:39:58 85° 219° (SW) 4,123 - -64.3°
Exits shadow 00:47:18 59° 139° (SE) 4,241 10.5 -63.5°
Drops below altitude 10° 01:01:28 10° 130° (SE) 5,933 11.8 -61.7°
Sets 01:05:08 0° 129° (SE) 6,583 12.2 -61.2°
